Location: Isola Pescaroli
(45.0500°N, 10.1667°E)
Time: 02:13:37
(UTC+00:00)

SL-4 R/B - Pass Details

Date: 23 June 2021
Orbit: 428 x 662 km, 51.6° (Epoch: 29 July)

Event Time Altitude Azimuth Distance (km) Brightness Sun altitude
Rises 01:00:02 0° 297° (WNW) 2,594 5.5 -17.9°
Reaches altitude 10° 01:02:23 10° 305° (NW) 1,669 4.6 -17.8°
Maximum altitude 01:05:56 39° 17° (NNE) 705 3.1 -17.5°
Drops below altitude 10° 01:09:16 10° 88° (E) 1,569 4.7 -17.3°
Sets 01:11:25 0° 96° (E) 2,416 5.6 -17.1°
